This is the latest recevied weather packets stored in our database for station/object SR2ATJ-13. If no packets are shown the sender has not sent any weather packets the latest 10 day(s).
| Time | Temp. | Humidity | Pressure | Rain* | Wind** | Luminosity | Snow |
|---|---|---|---|---|---|---|---|
| 1777473904 | 11.67° C | 30% | 1028.6 hPa | - | - | - | - |
| 1777473303 | 11.67° C | 31% | 1028.7 hPa | - | - | - | - |
| 1777472703 | 11.11° C | 32% | 1028.8 hPa | - | - | - | - |
| 1777472103 | 11.11° C | 31% | 1028.7 hPa | - | - | - | - |
| 1777471505 | 11.11° C | 33% | 1028.9 hPa | - | - | - | - |
| 1777470904 | 10.56° C | 32% | 1028.9 hPa | - | - | - | - |
| 1777470306 | 11.11° C | 32% | 1028.8 hPa | - | - | - | - |
| 1777469703 | 11.67° C | 32% | 1028.9 hPa | - | - | - | - |
| 1777469103 | 10.56° C | 33% | 1028.9 hPa | - | - | - | - |
| 1777468504 | 11.11° C | 34% | 1029.1 hPa | - | - | - | - |
| 1777467904 | 10° C | 35% | 1029.1 hPa | - | - | - | - |
| 1777467303 | 9.44° C | 35% | 1029.3 hPa | - | - | - | - |
| 1777466703 | 10° C | 33% | 1029.2 hPa | - | - | - | - |
| 1777466103 | 11.67° C | 31% | 1029 hPa | - | - | - | - |
| 1777465503 | 11.11° C | 32% | 1029 hPa | - | - | - | - |
| 1777464903 | 11.11° C | 34% | 1029.2 hPa | - | - | - | - |
| 1777464303 | 10° C | 34% | 1029.3 hPa | - | - | - | - |
| 1777463703 | 10° C | 35% | 1029.5 hPa | - | - | - | - |
| 1777463103 | 10° C | 35% | 1029.4 hPa | - | - | - | - |
| 1777461903 | 9.44° C | 36% | 1029.6 hPa | - | - | - | - |
| 1777461303 | 9.44° C | 35% | 1029.6 hPa | - | - | - | - |
| 1777460703 | 9.44° C | 34% | 1029.4 hPa | - | - | - | - |
| 1777460103 | 9.44° C | 34% | 1029.4 hPa | - | - | - | - |
| 1777459503 | 9.44° C | 33% | 1029.3 hPa | - | - | - | - |
| 1777458905 | 9.44° C | 32% | 1029.2 hPa | - | - | - | - |
* Rain since midnight (hover to see other rain measurements)
** Current wind speed in m/s (hover to see current wind gust speed)